| time (UTC) | temp C | wind direction | speed KPH | gust KPH | rain 1hr cm | rain 24hr cm | rain mn cm | humidity % | barometer mb |
| 20260509090137 | 12 | 169 | 0.0 | 1.6 | 0.00 | 0.00 | 0.00 | 98 | 1007.8 |
| 20260509085635 | 12 | 161 | 0.0 | 0.0 | 0.00 | 0.00 | 0.00 | 98 | 1007.8 |
| 20260509085131 | 12 | 163 | 0.0 | 1.6 | 0.00 | 0.00 | 0.00 | 98 | 1007.8 |
| 20260509084628 | 12 | 164 | 0.0 | 0.0 | 0.00 | 0.00 | 0.00 | 98 | 1008.0 |
| 20260509084125 | 12 | 166 | 0.0 | 0.0 | 0.00 | 0.00 | 0.00 | 98 | 1008.1 |
| 20260509083623 | 12 | 164 | 0.0 | 0.0 | 0.00 | 0.00 | 0.00 | 98 | 1007.8 |
| 20260509083119 | 12 | 182 | 0.0 | 0.0 | 0.00 | 0.00 | 0.00 | 98 | 1007.8 |
| 20260509082617 | 12 | 161 | 0.0 | 1.6 | 0.00 | 0.00 | 0.00 | 98 | 1007.8 |
| 20260509082113 | 12 | 167 | 0.0 | 0.0 | 0.00 | 0.00 | 0.00 | 98 | 1008.0 |
| 20260509081610 | 12 | 172 | 1.6 | 1.6 | 0.00 | 0.00 | 0.00 | 98 | 1007.9 |
| 20260509081107 | 12 | 165 | 0.0 | 0.0 | 0.00 | 0.00 | 0.00 | 98 | 1007.7 |
| 20260509080606 | 12 | 162 | 0.0 | 0.0 | 0.00 | 0.00 | 0.00 | 98 | 1007.9 |
| 20260509075601 | 12 | 146 | 0.0 | 0.0 | 0.00 | 0.00 | 0.00 | 98 | 1007.9 |
| 20260509075058 | 12 | 163 | 0.0 | 0.0 | 0.00 | 0.00 | 0.00 | 98 | 1007.8 |
| 20260509074555 | 12 | 186 | 1.6 | 3.2 | 0.00 | 0.00 | 0.00 | 98 | 1007.8 |
| 20260509074051 | 12 | 163 | 0.0 | 0.0 | 0.00 | 0.00 | 0.00 | 98 | 1007.9 |
| 20260509073548 | 12 | 136 | 0.0 | 1.6 | 0.00 | 0.00 | 0.00 | 98 | 1007.7 |
| 20260509073045 | 12 | 162 | 0.0 | 1.6 | 0.00 | 0.00 | 0.00 | 98 | 1007.8 |
| 20260509072541 | 12 | 161 | 0.0 | 0.0 | 0.00 | 0.00 | 0.00 | 98 | 1007.8 |
| 20260509072038 | 12 | 163 | 0.0 | 1.6 | 0.00 | 0.00 | 0.00 | 98 | 1007.9 |
| 20260509071535 | 12 | 164 | 0.0 | 1.6 | 0.00 | 0.00 | 0.00 | 98 | 1008.3 |
| 20260509071033 | 12 | 165 | 0.0 | 0.0 | 0.00 | 0.00 | 0.00 | 98 | 1008.4 |
| 20260509070529 | 12 | 164 | 0.0 | 0.0 | 0.00 | 0.00 | 0.00 | 98 | 1008.3 |
| 20260509070026 | 12 | 160 | 0.0 | 0.0 | 0.00 | 0.00 | 0.00 | 98 | 1008.2 |
| 20260509065521 | 12 | 161 | 0.0 | 0.0 | 0.00 | 0.00 | 0.00 | 98 | 1008.4 |
| 20260509065017 | 12 | 163 | 0.0 | 0.0 | 0.00 | 0.00 | 0.00 | 98 | 1008.5 |
| 20260509064515 | 12 | 153 | 0.0 | 0.0 | 0.00 | 0.00 | 0.00 | 98 | 1008.6 |
| 20260509064013 | 12 | 167 | 0.0 | 1.6 | 0.00 | 0.00 | 0.00 | 98 | 1009.0 |
| 20260509063508 | 12 | 155 | 0.0 | 0.0 | 0.00 | 0.00 | 0.00 | 98 | 1008.5 |
| 20260509063006 | 12 | 162 | 0.0 | 0.0 | 0.00 | 0.00 | 0.00 | 98 | 1008.8 |
| 20260509062503 | 12 | 161 | 0.0 | 0.0 | 0.00 | 0.00 | 0.00 | 98 | 1008.7 |
| 20260509062001 | 12 | 163 | 0.0 | 0.0 | 0.00 | 0.00 | 0.00 | 98 | 1008.8 |
| 20260509061457 | 12 | 160 | 0.0 | 0.0 | 0.00 | 0.00 | 0.00 | 98 | 1008.7 |
| 20260509060954 | 12 | 161 | 0.0 | 0.0 | 0.00 | 0.00 | 0.00 | 98 | 1008.6 |
| 20260509060452 | 13 | 175 | 0.0 | 1.6 | 0.00 | 0.00 | 0.00 | 98 | 1008.8 |
| 20260509055947 | 13 | 183 | 1.6 | 3.2 | 0.00 | 0.00 | 0.00 | 98 | 1009.3 |
| 20260509055443 | 12 | 168 | 0.0 | 0.0 | 0.00 | 0.00 | 0.00 | 98 | 1009.1 |
| 20260509054939 | 13 | 165 | 1.6 | 3.2 | 0.00 | 0.00 | 0.00 | 98 | 1009.3 |
| 20260509054436 | 13 | 161 | 0.0 | 0.0 | 0.00 | 0.00 | 0.00 | 98 | 1009.7 |
| 20260509053934 | 13 | 161 | 0.0 | 0.0 | 0.00 | 0.00 | 0.00 | 98 | 1009.9 |
| 20260509053432 | 13 | 164 | 0.0 | 0.0 | 0.00 | 0.00 | 0.00 | 98 | 1009.9 |
| 20260509052929 | 13 | 167 | 0.0 | 0.0 | 0.00 | 0.00 | 0.00 | 98 | 1009.8 |
| 20260509052427 | 13 | 167 | 1.6 | 1.6 | 0.00 | 0.00 | 0.00 | 98 | 1009.8 |
| 20260509051925 | 13 | 158 | 0.0 | 0.0 | 0.00 | 0.00 | 0.00 | 98 | 1009.7 |
| 20260509051422 | 13 | 153 | 0.0 | 1.6 | 0.00 | 0.00 | 0.00 | 98 | 1009.8 |
| 20260509050919 | 12 | 163 | 0.0 | 0.0 | 0.00 | 0.00 | 0.00 | 98 | 1009.7 |
| 20260509050415 | 12 | 162 | 1.6 | 3.2 | 0.00 | 0.00 | 0.00 | 97 | 1009.9 |
| 20260509045912 | 12 | 165 | 0.0 | 1.6 | 0.00 | 0.00 | 0.00 | 97 | 1009.8 |
| 20260509045409 | 12 | 161 | 0.0 | 0.0 | 0.00 | 0.00 | 0.00 | 97 | 1009.6 |
| 20260509044906 | 12 | 160 | 0.0 | 1.6 | 0.00 | 0.00 | 0.00 | 97 | 1009.8 |
| 20260509044404 | 12 | 165 | 0.0 | 0.0 | 0.00 | 0.00 | 0.00 | 97 | 1009.7 |
| 20260509043901 | 12 | 160 | 0.0 | 0.0 | 0.00 | 0.00 | 0.00 | 97 | 1009.7 |
| 20260509043356 | 12 | 157 | 0.0 | 0.0 | 0.00 | 0.00 | 0.00 | 97 | 1009.6 |
| 20260509042852 | 12 | 160 | 0.0 | 0.0 | 0.00 | 0.00 | 0.00 | 97 | 1009.7 |
| 20260509042349 | 12 | 165 | 0.0 | 0.0 | 0.00 | 0.00 | 0.00 | 97 | 1009.8 |
| 20260509041846 | 12 | 162 | 0.0 | 0.0 | 0.00 | 0.00 | 0.00 | 97 | 1009.7 |
| 20260509041343 | 12 | 166 | 0.0 | 1.6 | 0.00 | 0.00 | 0.00 | 97 | 1009.7 |
| 20260509040841 | 12 | 151 | 0.0 | 1.6 | 0.00 | 0.00 | 0.00 | 97 | 1009.5 |
| 20260509040338 | 12 | 165 | 0.0 | 0.0 | 0.00 | 0.00 | 0.00 | 97 | 1009.6 |
| 20260509035835 | 12 | 155 | 0.0 | 0.0 | 0.00 | 0.00 | 0.00 | 97 | 1009.6 |
| 20260509035332 | 12 | 164 | 0.0 | 0.0 | 0.00 | 0.00 | 0.00 | 97 | 1009.5 |
| 20260509034828 | 12 | 179 | 0.0 | 0.0 | 0.00 | 0.00 | 0.00 | 97 | 1009.6 |
| 20260509034327 | 13 | 167 | 0.0 | 0.0 | 0.00 | 0.00 | 0.00 | 97 | 1010.1 |
| 20260509033823 | 13 | 159 | 0.0 | 0.0 | 0.00 | 0.00 | 0.00 | 97 | 1010.1 |
| 20260509033320 | 13 | 180 | 0.0 | 0.0 | 0.00 | 0.00 | 0.00 | 97 | 1009.9 |
| 20260509032817 | 13 | 165 | 0.0 | 0.0 | 0.00 | 0.00 | 0.00 | 97 | 1009.8 |
| 20260509032314 | 13 | 163 | 0.0 | 1.6 | 0.00 | 0.00 | 0.00 | 97 | 1009.7 |
| 20260509031812 | 13 | 160 | 0.0 | 0.0 | 0.00 | 0.00 | 0.00 | 97 | 1009.9 |
| 20260509031309 | 13 | 163 | 1.6 | 1.6 | 0.00 | 0.00 | 0.00 | 97 | 1009.7 |
| 20260509030807 | 13 | 151 | 0.0 | 1.6 | 0.00 | 0.00 | 0.00 | 96 | 1009.7 |
| 20260509030304 | 13 | 158 | 0.0 | 0.0 | 0.00 | 0.00 | 0.00 | 96 | 1009.9 |
| 20260509025801 | 13 | 159 | 0.0 | 0.0 | 0.00 | 0.00 | 0.00 | 96 | 1009.8 |
| 20260509025256 | 13 | 160 | 1.6 | 3.2 | 0.00 | 0.00 | 0.00 | 96 | 1010.1 |
| 20260509024752 | 13 | 161 | 0.0 | 0.0 | 0.00 | 0.00 | 0.00 | 96 | 1010.2 |
| 20260509024248 | 13 | 162 | 0.0 | 0.0 | 0.00 | 0.00 | 0.00 | 96 | 1010.1 |
| 20260509023746 | 13 | 156 | 0.0 | 0.0 | 0.00 | 0.00 | 0.00 | 96 | 1010.0 |
| 20260509023243 | 13 | 151 | 0.0 | 1.6 | 0.00 | 0.00 | 0.00 | 96 | 1010.0 |
| 20260509022739 | 13 | 165 | 1.6 | 1.6 | 0.00 | 0.00 | 0.00 | 96 | 1010.1 |
| 20260509022237 | 13 | 165 | 0.0 | 0.0 | 0.00 | 0.00 | 0.00 | 96 | 1010.0 |
| 20260509021733 | 13 | 161 | 0.0 | 0.0 | 0.00 | 0.00 | 0.00 | 96 | 1010.2 |
| 20260509021230 | 13 | 162 | 0.0 | 0.0 | 0.00 | 0.00 | 0.00 | 96 | 1010.5 |
| 20260509020729 | 13 | 162 | 0.0 | 0.0 | 0.00 | 0.00 | 0.00 | 96 | 1010.4 |
| 20260509020225 | 13 | 186 | 3.2 | 4.8 | 0.00 | 0.00 | 0.00 | 96 | 1010.2 |
| 20260509015723 | 13 | 164 | 0.0 | 0.0 | 0.00 | 0.00 | 0.00 | 96 | 1010.6 |
| 20260509015222 | 13 | 148 | 0.0 | 1.6 | 0.00 | 0.00 | 0.00 | 96 | 1010.1 |
| 20260509014718 | 13 | 182 | 1.6 | 1.6 | 0.00 | 0.00 | 0.00 | 96 | 1010.1 |
| 20260509014215 | 13 | 161 | 0.0 | 0.0 | 0.00 | 0.00 | 0.00 | 96 | 1010.0 |
| 20260509013711 | 13 | 167 | 0.0 | 0.0 | 0.00 | 0.00 | 0.00 | 96 | 1010.0 |
| 20260509013207 | 13 | 161 | 0.0 | 0.0 | 0.00 | 0.00 | 0.00 | 96 | 1009.8 |
| 20260509012704 | 13 | 163 | 0.0 | 0.0 | 0.00 | 0.00 | 0.00 | 96 | 1010.1 |
| 20260509012200 | 13 | 162 | 0.0 | 0.0 | 0.00 | 0.00 | 0.00 | 96 | 1010.1 |
| 20260509011658 | 13 | 164 | 1.6 | 1.6 | 0.00 | 0.00 | 0.00 | 96 | 1010.2 |
| 20260509011155 | 13 | 160 | 0.0 | 0.0 | 0.00 | 0.00 | 0.00 | 96 | 1010.0 |
| 20260509010653 | 13 | 162 | 0.0 | 0.0 | 0.00 | 0.00 | 0.00 | 96 | 1009.8 |
| 20260509010149 | 13 | 160 | 0.0 | 0.0 | 0.00 | 0.00 | 0.00 | 96 | 1010.1 |
| 20260509005647 | 13 | 163 | 0.0 | 0.0 | 0.00 | 0.00 | 0.00 | 96 | 1010.0 |
| 20260509005143 | 13 | 162 | 0.0 | 0.0 | 0.00 | 0.00 | 0.00 | 96 | 1009.9 |
| 20260509004639 | 13 | 166 | 0.0 | 0.0 | 0.00 | 0.00 | 0.00 | 95 | 1009.8 |
| 20260509004136 | 13 | 162 | 0.0 | 0.0 | 0.00 | 0.00 | 0.00 | 95 | 1009.8 |
| 20260509003635 | 13 | 162 | 0.0 | 1.6 | 0.00 | 0.00 | 0.00 | 95 | 1009.4 |
| 20260509003132 | 13 | 163 | 0.0 | 0.0 | 0.00 | 0.00 | 0.00 | 95 | 1009.5 |
| 20260509002629 | 13 | 163 | 0.0 | 0.0 | 0.00 | 0.00 | 0.00 | 95 | 1009.8 |
| 20260509002126 | 13 | 164 | 0.0 | 0.0 | 0.00 | 0.00 | 0.00 | 95 | 1009.4 |
| 20260509001624 | 13 | 163 | 0.0 | 0.0 | 0.00 | 0.00 | 0.00 | 95 | 1009.7 |
| 20260509001119 | 13 | 158 | 0.0 | 0.0 | 0.00 | 0.00 | 0.00 | 95 | 1009.9 |
| 20260509000618 | 13 | 182 | 0.0 | 1.6 | 0.00 | 0.00 | 0.00 | 94 | 1009.9 |
| 20260509000114 | 13 | 172 | 1.6 | 1.6 | 0.00 | 0.00 | 0.00 | 94 | 1010.0 |
| 20260508235612 | 13 | 187 | 1.6 | 1.6 | 0.00 | 0.00 | 0.00 | 94 | 1010.1 |
| 20260508235108 | 13 | 166 | 1.6 | 1.6 | 0.00 | 0.00 | 0.00 | 94 | 1010.0 |
| 20260508234605 | 13 | 163 | 0.0 | 0.0 | 0.00 | 0.00 | 0.00 | 94 | 1010.0 |
| 20260508234102 | 13 | 167 | 0.0 | 0.0 | 0.00 | 0.00 | 0.00 | 93 | 1009.8 |
| 20260508233601 | 13 | 160 | 0.0 | 0.0 | 0.00 | 0.00 | 0.00 | 94 | 1009.8 |
| 20260508233058 | 13 | 130 | 1.6 | 1.6 | 0.00 | 0.00 | 0.00 | 93 | 1010.0 |
| 20260508232555 | 13 | 166 | 0.0 | 0.0 | 0.00 | 0.00 | 0.00 | 94 | 1010.1 |
| 20260508232052 | 13 | 159 | 0.0 | 0.0 | 0.00 | 0.00 | 0.00 | 94 | 1010.3 |
| 20260508231550 | 13 | 157 | 0.0 | 0.0 | 0.00 | 0.00 | 0.00 | 93 | 1010.3 |
| 20260508231046 | 13 | 141 | 1.6 | 1.6 | 0.00 | 0.00 | 0.00 | 93 | 1010.1 |
| 20260508230543 | 13 | 146 | 1.6 | 1.6 | 0.00 | 0.00 | 0.00 | 93 | 1009.9 |
| 20260508230040 | 13 | 162 | 0.0 | 0.0 | 0.00 | 0.00 | 0.00 | 93 | 1010.2 |
| 20260508225537 | 13 | 165 | 0.0 | 0.0 | 0.00 | 0.00 | 0.00 | 92 | 1010.1 |
| 20260508225033 | 13 | 160 | 0.0 | 0.0 | 0.00 | 0.00 | 0.00 | 92 | 1010.0 |
| 20260508224532 | 13 | 159 | 0.0 | 0.0 | 0.00 | 0.00 | 0.00 | 92 | 1010.1 |
| 20260508224029 | 13 | 162 | 0.0 | 0.0 | 0.00 | 0.00 | 0.00 | 91 | 1010.1 |
| 20260508223527 | 13 | 158 | 0.0 | 0.0 | 0.00 | 0.00 | 0.00 | 91 | 1009.9 |
| 20260508223023 | 13 | 149 | 0.0 | 0.0 | 0.00 | 0.00 | 0.00 | 90 | 1010.0 |
| 20260508222521 | 13 | 149 | 1.6 | 3.2 | 0.00 | 0.00 | 0.00 | 88 | 1010.0 |
| 20260508222017 | 14 | 149 | 1.6 | 4.8 | 0.00 | 0.00 | 0.00 | 87 | 1010.1 |
| 20260508221514 | 14 | 171 | 0.0 | 1.6 | 0.00 | 0.00 | 0.00 | 85 | 1009.9 |
| 20260508221010 | 15 | 167 | 1.6 | 3.2 | 0.00 | 0.00 | 0.00 | 82 | 1010.0 |
| 20260508220506 | 15 | 136 | 0.0 | 1.6 | 0.00 | 0.00 | 0.00 | 80 | 1010.1 |
| 20260508220002 | 15 | 184 | 1.6 | 3.2 | 0.00 | 0.00 | 0.00 | 77 | 1010.0 |
| 20260508215500 | 16 | 169 | 1.6 | 1.6 | 0.00 | 0.00 | 0.00 | 75 | 1009.7 |
| 20260508214956 | 16 | 252 | 1.6 | 3.2 | 0.00 | 0.00 | 0.00 | 73 | 1009.8 |
| 20260508214454 | 16 | 178 | 1.6 | 1.6 | 0.00 | 0.00 | 0.00 | 69 | 1009.6 |
| 20260508213950 | 16 | 164 | 0.0 | 0.0 | 0.00 | 0.00 | 0.00 | 70 | 1009.4 |
| 20260508213448 | 16 | 162 | 0.0 | 0.0 | 0.00 | 0.00 | 0.00 | 72 | 1009.4 |
| 20260508212942 | 16 | 161 | 0.0 | 0.0 | 0.00 | 0.00 | 0.00 | 70 | 1009.5 |
| 20260508212440 | 16 | 160 | 0.0 | 0.0 | 0.00 | 0.00 | 0.00 | 71 | 1009.5 |
| 20260508211935 | 16 | 166 | 0.0 | 0.0 | 0.00 | 0.00 | 0.00 | 68 | 1009.3 |
| 20260508211431 | 16 | 221 | 1.6 | 3.2 | 0.00 | 0.00 | 0.00 | 68 | 1009.4 |
| 20260508210929 | 17 | 161 | 0.0 | 0.0 | 0.00 | 0.00 | 0.00 | 65 | 1009.5 |
| 20260508210425 | 17 | 170 | 1.6 | 3.2 | 0.00 | 0.00 | 0.00 | 61 | 1009.6 |
| 20260508205921 | 17 | 193 | 3.2 | 4.8 | 0.00 | 0.00 | 0.00 | 56 | 1009.6 |
| 20260508205419 | 18 | 161 | 1.6 | 1.6 | 0.00 | 0.00 | 0.00 | 55 | 1009.6 |
| 20260508204915 | 18 | 174 | 0.0 | 1.6 | 0.00 | 0.00 | 0.00 | 53 | 1009.7 |
| 20260508204412 | 18 | 204 | 3.2 | 4.8 | 0.00 | 0.00 | 0.00 | 51 | 1009.4 |
| 20260508203908 | 18 | 163 | 0.0 | 1.6 | 0.00 | 0.00 | 0.00 | 51 | 1009.3 |
| 20260508203404 | 19 | 161 | 0.0 | 0.0 | 0.00 | 0.00 | 0.00 | 48 | 1009.1 |
| 20260508202900 | 19 | 154 | 1.6 | 3.2 | 0.00 | 0.00 | 0.00 | 47 | 1009.5 |
| 20260508202357 | 19 | 161 | 0.0 | 1.6 | 0.00 | 0.00 | 0.00 | 47 | 1009.4 |
| 20260508201855 | 19 | 160 | 0.0 | 0.0 | 0.00 | 0.00 | 0.00 | 46 | 1009.6 |
| 20260508201351 | 19 | 161 | 0.0 | 1.6 | 0.00 | 0.00 | 0.00 | 47 | 1009.4 |
| 20260508200848 | 19 | 164 | 3.2 | 3.2 | 0.00 | 0.00 | 0.00 | 46 | 1009.7 |
| 20260508200344 | 20 | 160 | 0.0 | 1.6 | 0.00 | 0.00 | 0.00 | 46 | 1009.7 |
| 20260508195840 | 19 | 294 | 1.6 | 4.8 | 0.00 | 0.00 | 0.00 | 47 | 1009.7 |
| 20260508195337 | 19 | 150 | 1.6 | 1.6 | 0.00 | 0.00 | 0.00 | 46 | 1009.8 |
| 20260508194833 | 19 | 147 | 0.0 | 1.6 | 0.00 | 0.00 | 0.00 | 48 | 1009.8 |
| 20260508194331 | 19 | 126 | 3.2 | 4.8 | 0.00 | 0.00 | 0.00 | 47 | 1010.1 |
| 20260508193827 | 19 | 158 | 0.0 | 0.0 | 0.00 | 0.00 | 0.00 | 47 | 1010.1 |
| 20260508193324 | 19 | 141 | 1.6 | 3.2 | 0.00 | 0.00 | 0.00 | 47 | 1010.2 |
| 20260508192821 | 19 | 159 | 0.0 | 1.6 | 0.00 | 0.00 | 0.00 | 47 | 1010.1 |
| 20260508192318 | 18 | 171 | 0.0 | 1.6 | 0.00 | 0.00 | 0.00 | 48 | 1010.2 |
| 20260508191815 | 18 | 198 | 0.0 | 1.6 | 0.00 | 0.00 | 0.00 | 47 | 1010.2 |
| 20260508191312 | 18 | 138 | 1.6 | 3.2 | 0.00 | 0.00 | 0.00 | 48 | 1010.3 |
| 20260508190809 | 18 | 145 | 0.0 | 1.6 | 0.00 | 0.00 | 0.00 | 48 | 1010.6 |
| 20260508190305 | 19 | 160 | 1.6 | 1.6 | 0.00 | 0.00 | 0.00 | 50 | 1010.6 |
| 20260508185801 | 18 | 221 | 3.2 | 4.8 | 0.00 | 0.00 | 0.00 | 49 | 1010.6 |
| 20260508185259 | 18 | 161 | 0.0 | 1.6 | 0.00 | 0.00 | 0.00 | 50 | 1010.7 |
| 20260508184756 | 18 | 170 | 1.6 | 3.2 | 0.00 | 0.00 | 0.00 | 49 | 1010.7 |
| 20260508184253 | 18 | 216 | 1.6 | 3.2 | 0.00 | 0.00 | 0.00 | 49 | 1011.0 |
| 20260508183750 | 18 | 156 | 0.0 | 1.6 | 0.00 | 0.00 | 0.00 | 49 | 1011.1 |
| 20260508183247 | 18 | 182 | 1.6 | 1.6 | 0.00 | 0.00 | 0.00 | 48 | 1010.9 |
| 20260508182743 | 18 | 155 | 6.4 | 9.7 | 0.00 | 0.00 | 0.00 | 47 | 1010.9 |
| 20260508182240 | 18 | 219 | 4.8 | 4.8 | 0.00 | 0.00 | 0.00 | 48 | 1010.9 |
| 20260508181735 | 18 | 165 | 1.6 | 1.6 | 0.00 | 0.00 | 0.00 | 48 | 1011.1 |
| 20260508181232 | 18 | 300 | 4.8 | 6.4 | 0.00 | 0.00 | 0.00 | 48 | 1011.3 |
| 20260508180729 | 19 | 168 | 3.2 | 4.8 | 0.00 | 0.00 | 0.00 | 46 | 1011.1 |
| 20260508180226 | 20 | 189 | 3.2 | 3.2 | 0.00 | 0.00 | 0.00 | 47 | 1011.3 |
| 20260508175722 | 20 | 234 | 1.6 | 3.2 | 0.00 | 0.00 | 0.00 | 47 | 1011.2 |
| 20260508175219 | 20 | 167 | 3.2 | 3.2 | 0.00 | 0.00 | 0.00 | 48 | 1011.4 |
| 20260508174717 | 20 | 149 | 3.2 | 4.8 | 0.00 | 0.00 | 0.00 | 45 | 1011.3 |
| 20260508174214 | 20 | 168 | 1.6 | 3.2 | 0.00 | 0.00 | 0.00 | 46 | 1011.5 |
| 20260508173710 | 20 | 154 | 0.0 | 1.6 | 0.00 | 0.00 | 0.00 | 45 | 1011.5 |
| 20260508173206 | 19 | 211 | 3.2 | 4.8 | 0.00 | 0.00 | 0.00 | 46 | 1011.6 |
| 20260508172704 | 18 | 150 | 0.0 | 1.6 | 0.00 | 0.00 | 0.00 | 48 | 1011.7 |
| 20260508172200 | 19 | 174 | 1.6 | 3.2 | 0.00 | 0.00 | 0.00 | 46 | 1011.6 |
| 20260508171657 | 19 | 167 | 0.0 | 1.6 | 0.00 | 0.00 | 0.00 | 46 | 1011.8 |
| 20260508171153 | 19 | 164 | 0.0 | 1.6 | 0.00 | 0.00 | 0.00 | 46 | 1011.9 |
| 20260508170650 | 18 | 144 | 3.2 | 4.8 | 0.00 | 0.00 | 0.00 | 48 | 1012.0 |
| 20260508170148 | 19 | 201 | 8.0 | 12.9 | 0.00 | 0.00 | 0.00 | 46 | 1012.1 |
| 20260508165645 | 19 | 228 | 4.8 | 9.7 | 0.00 | 0.00 | 0.00 | 47 | 1012.2 |
| 20260508165142 | 18 | 229 | 3.2 | 4.8 | 0.00 | 0.00 | 0.00 | 46 | 1012.1 |
| 20260508164638 | 18 | 233 | 1.6 | 3.2 | 0.00 | 0.00 | 0.00 | 48 | 1012.3 |
| 20260508164135 | 18 | 149 | 0.0 | 1.6 | 0.00 | 0.00 | 0.00 | 48 | 1012.7 |
| 20260508163633 | 18 | 220 | 4.8 | 6.4 | 0.00 | 0.00 | 0.00 | 46 | 1012.6 |
| 20260508163130 | 19 | 159 | 9.7 | 12.9 | 0.00 | 0.00 | 0.00 | 46 | 1012.6 |
| 20260508162626 | 19 | 101 | 4.8 | 6.4 | 0.00 | 0.00 | 0.00 | 48 | 1012.9 |
| 20260508162124 | 20 | 138 | 3.2 | 4.8 | 0.00 | 0.00 | 0.00 | 46 | 1012.8 |
| 20260508161620 | 20 | 218 | 3.2 | 9.7 | 0.00 | 0.00 | 0.00 | 46 | 1012.6 |
| 20260508161118 | 18 | 204 | 1.6 | 4.8 | 0.00 | 0.00 | 0.00 | 49 | 1012.8 |
| 20260508160616 | 17 | 160 | 3.2 | 4.8 | 0.00 | 0.00 | 0.00 | 50 | 1012.8 |
| 20260508160113 | 18 | 144 | 3.2 | 4.8 | 0.00 | 0.00 | 0.00 | 48 | 1012.9 |
| 20260508155610 | 18 | 187 | 3.2 | 4.8 | 0.00 | 0.00 | 0.00 | 49 | 1012.8 |
| 20260508155107 | 17 | 180 | 1.6 | 3.2 | 0.00 | 0.00 | 0.00 | 50 | 1012.9 |
| 20260508154603 | 18 | 143 | 0.0 | 1.6 | 0.00 | 0.00 | 0.00 | 48 | 1013.1 |
| 20260508154100 | 18 | 146 | 3.2 | 6.4 | 0.00 | 0.00 | 0.00 | 49 | 1013.0 |
| 20260508153557 | 18 | 160 | 0.0 | 1.6 | 0.00 | 0.00 | 0.00 | 47 | 1013.1 |
| 20260508153054 | 19 | 152 | 0.0 | 1.6 | 0.00 | 0.00 | 0.00 | 46 | 1013.1 |
| 20260508152551 | 20 | 159 | 6.4 | 9.7 | 0.00 | 0.00 | 0.00 | 45 | 1012.7 |
| 20260508152046 | 20 | 238 | 11.3 | 12.9 | 0.00 | 0.00 | 0.00 | 45 | 1012.7 |
| 20260508151543 | 18 | 170 | 0.0 | 1.6 | 0.00 | 0.00 | 0.00 | 47 | 1012.9 |
| 20260508151040 | 19 | 154 | 3.2 | 9.7 | 0.00 | 0.00 | 0.00 | 47 | 1013.1 |
| 20260508150537 | 18 | 174 | 3.2 | 6.4 | 0.00 | 0.00 | 0.00 | 47 | 1012.9 |
| 20260508150033 | 18 | 133 | 4.8 | 9.7 | 0.00 | 0.00 | 0.00 | 46 | 1013.0 |
| 20260508145530 | 18 | 256 | 4.8 | 4.8 | 0.00 | 0.00 | 0.00 | 49 | 1013.0 |
| 20260508145026 | 18 | 181 | 4.8 | 9.7 | 0.00 | 0.00 | 0.00 | 48 | 1013.3 |
| 20260508144524 | 18 | 152 | 6.4 | 9.7 | 0.00 | 0.00 | 0.00 | 47 | 1013.1 |
| 20260508144021 | 18 | 235 | 4.8 | 11.3 | 0.00 | 0.00 | 0.00 | 46 | 1013.5 |
| 20260508143519 | 18 | 222 | 4.8 | 6.4 | 0.00 | 0.00 | 0.00 | 49 | 1013.4 |
| 20260508143015 | 17 | 234 | 3.2 | 9.7 | 0.00 | 0.00 | 0.00 | 51 | 1013.5 |
| 20260508142512 | 17 | 259 | 8.0 | 12.9 | 0.00 | 0.00 | 0.00 | 49 | 1013.3 |
| 20260508142008 | 17 | 215 | 4.8 | 9.7 | 0.00 | 0.00 | 0.00 | 50 | 1013.4 |
| 20260508141505 | 17 | 163 | 4.8 | 6.4 | 0.00 | 0.00 | 0.00 | 50 | 1013.7 |
| 20260508141003 | 16 | 160 | 3.2 | 4.8 | 0.00 | 0.00 | 0.00 | 50 | 1013.7 |
| 20260508140500 | 16 | 175 | 3.2 | 6.4 | 0.00 | 0.00 | 0.00 | 49 | 1013.4 |
| 20260508135955 | 16 | 283 | 6.4 | 9.7 | 0.00 | 0.00 | 0.00 | 51 | 1013.5 |
| 20260508135452 | 16 | 1 | 4.8 | 6.4 | 0.00 | 0.00 | 0.00 | 50 | 1013.8 |
| 20260508134948 | 16 | 268 | 6.4 | 9.7 | 0.00 | 0.00 | 0.00 | 51 | 1013.5 |
| 20260508134445 | 16 | 176 | 3.2 | 4.8 | 0.00 | 0.00 | 0.00 | 50 | 1013.5 |
| 20260508133942 | 16 | 162 | 4.8 | 6.4 | 0.00 | 0.00 | 0.00 | 49 | 1013.7 |
| 20260508133439 | 15 | 155 | 0.0 | 0.0 | 0.00 | 0.00 | 0.00 | 52 | 1013.9 |
| 20260508132936 | 15 | 162 | 3.2 | 6.4 | 0.00 | 0.00 | 0.00 | 50 | 1013.8 |
| 20260508132434 | 15 | 167 | 0.0 | 1.6 | 0.00 | 0.00 | 0.00 | 52 | 1013.9 |
| 20260508131931 | 15 | 181 | 3.2 | 3.2 | 0.00 | 0.00 | 0.00 | 51 | 1013.7 |
| 20260508131426 | 15 | 169 | 4.8 | 6.4 | 0.00 | 0.00 | 0.00 | 52 | 1013.9 |
| 20260508130923 | 14 | 184 | 4.8 | 6.4 | 0.00 | 0.00 | 0.00 | 52 | 1013.8 |
| 20260508130420 | 14 | 174 | 0.0 | 1.6 | 0.00 | 0.00 | 0.00 | 52 | 1013.9 |
| 20260508125915 | 14 | 167 | 0.0 | 0.0 | 0.00 | 0.00 | 0.00 | 52 | 1013.9 |
| 20260508125412 | 13 | 198 | 1.6 | 3.2 | 0.00 | 0.00 | 0.00 | 54 | 1014.0 |
| 20260508124910 | 13 | 169 | 6.4 | 6.4 | 0.00 | 0.00 | 0.00 | 52 | 1014.0 |
| 20260508124407 | 13 | 167 | 4.8 | 6.4 | 0.00 | 0.00 | 0.00 | 53 | 1013.8 |
| 20260508123905 | 13 | 157 | 0.0 | 1.6 | 0.00 | 0.00 | 0.00 | 55 | 1013.8 |
| 20260508123403 | 12 | 158 | 0.0 | 0.0 | 0.00 | 0.00 | 0.00 | 54 | 1013.8 |
| 20260508122859 | 12 | 163 | 3.2 | 4.8 | 0.00 | 0.00 | 0.00 | 55 | 1013.9 |
| 20260508122356 | 12 | 154 | 0.0 | 1.6 | 0.00 | 0.00 | 0.00 | 55 | 1013.9 |
| 20260508121853 | 12 | 274 | 6.4 | 14.5 | 0.00 | 0.00 | 0.00 | 56 | 1014.1 |
| 20260508121352 | 12 | 159 | 3.2 | 3.2 | 0.00 | 0.00 | 0.00 | 56 | 1013.8 |
| 20260508120849 | 11 | 161 | 0.0 | 0.0 | 0.00 | 0.00 | 0.00 | 57 | 1013.9 |
| 20260508120347 | 11 | 154 | 0.0 | 1.6 | 0.00 | 0.00 | 0.00 | 58 | 1013.9 |
| 20260508115844 | 11 | 164 | 1.6 | 1.6 | 0.00 | 0.00 | 0.00 | 60 | 1013.7 |
| 20260508115341 | 10 | 199 | 1.6 | 3.2 | 0.00 | 0.00 | 0.00 | 60 | 1013.9 |
| 20260508114838 | 10 | 166 | 1.6 | 1.6 | 0.00 | 0.00 | 0.00 | 62 | 1013.7 |
| 20260508114335 | 10 | 173 | 0.0 | 0.0 | 0.00 | 0.00 | 0.00 | 63 | 1013.4 |
| 20260508113832 | 9 | 168 | 0.0 | 0.0 | 0.00 | 0.00 | 0.00 | 64 | 1013.7 |
| 20260508113330 | 9 | 167 | 0.0 | 0.0 | 0.00 | 0.00 | 0.00 | 65 | 1013.4 |
| 20260508112826 | 8 | 158 | 0.0 | 0.0 | 0.00 | 0.00 | 0.00 | 66 | 1013.5 |
| 20260508112323 | 8 | 165 | 0.0 | 1.6 | 0.00 | 0.00 | 0.00 | 68 | 1013.4 |
| 20260508111820 | 7 | 165 | 0.0 | 0.0 | 0.00 | 0.00 | 0.00 | 70 | 1013.5 |
| 20260508111317 | 7 | 162 | 0.0 | 0.0 | 0.00 | 0.00 | 0.00 | 71 | 1013.4 |
| 20260508110814 | 7 | 163 | 0.0 | 0.0 | 0.00 | 0.00 | 0.00 | 72 | 1013.7 |
| 20260508110311 | 7 | 162 | 0.0 | 0.0 | 0.00 | 0.00 | 0.00 | 72 | 1013.3 |
| 20260508105811 | 7 | 161 | 0.0 | 0.0 | 0.00 | 0.00 | 0.00 | 73 | 1013.3 |
| 20260508105308 | 6 | 159 | 0.0 | 0.0 | 0.00 | 0.00 | 0.00 | 74 | 1013.3 |
| 20260508104805 | 6 | 161 | 0.0 | 0.0 | 0.00 | 0.00 | 0.00 | 74 | 1013.4 |
| 20260508104302 | 6 | 159 | 0.0 | 0.0 | 0.00 | 0.00 | 0.00 | 74 | 1013.5 |
| 20260508103759 | 7 | 162 | 0.0 | 0.0 | 0.00 | 0.00 | 0.00 | 73 | 1013.7 |
| 20260508103256 | 7 | 162 | 0.0 | 0.0 | 0.00 | 0.00 | 0.00 | 72 | 1013.4 |
| 20260508102753 | 7 | 162 | 0.0 | 0.0 | 0.00 | 0.00 | 0.00 | 71 | 1013.3 |
| 20260508102251 | 7 | 159 | 0.0 | 0.0 | 0.00 | 0.00 | 0.00 | 71 | 1013.2 |
| 20260508101748 | 7 | 156 | 0.0 | 0.0 | 0.00 | 0.00 | 0.00 | 71 | 1013.2 |
| 20260508101246 | 7 | 162 | 0.0 | 0.0 | 0.00 | 0.00 | 0.00 | 70 | 1013.2 |
| 20260508100743 | 7 | 159 | 0.0 | 0.0 | 0.00 | 0.00 | 0.00 | 69 | 1013.2 |
| 20260508100241 | 7 | 159 | 0.0 | 0.0 | 0.00 | 0.00 | 0.00 | 70 | 1013.0 |
| 20260508095737 | 8 | 160 | 0.0 | 0.0 | 0.00 | 0.00 | 0.00 | 69 | 1013.4 |
| 20260508095235 | 8 | 160 | 0.0 | 0.0 | 0.00 | 0.00 | 0.00 | 68 | 1013.3 |
| 20260508094731 | 7 | 159 | 0.0 | 0.0 | 0.00 | 0.00 | 0.00 | 70 | 1013.2 |
| 20260508094229 | 7 | 162 | 0.0 | 0.0 | 0.00 | 0.00 | 0.00 | 70 | 1013.1 |
| 20260508093726 | 7 | 161 | 0.0 | 0.0 | 0.00 | 0.00 | 0.00 | 70 | 1013.2 |
| 20260508093223 | 8 | 161 | 0.0 | 0.0 | 0.00 | 0.00 | 0.00 | 69 | 1013.3 |
| 20260508092720 | 8 | 160 | 0.0 | 0.0 | 0.00 | 0.00 | 0.00 | 68 | 1013.4 |
| 20260508092218 | 8 | 162 | 0.0 | 0.0 | 0.00 | 0.00 | 0.00 | 67 | 1013.7 |
| 20260508091716 | 9 | 162 | 0.0 | 0.0 | 0.00 | 0.00 | 0.00 | 66 | 1013.5 |
| 20260508091213 | 9 | 162 | 0.0 | 0.0 | 0.00 | 0.00 | 0.00 | 64 | 1013.5 |
| 20260508090710 | 10 | 160 | 0.0 | 0.0 | 0.00 | 0.00 | 0.00 | 64 | 1013.0 |